Date String (YYYY-MM-DD hh:mm:ss) UTC,Instrument flags,absolute air pressure of the measurement (hPa),sample flow rate (lpm),inlet stack bypass flow (lpm),air temperature of the measurement (°C),ambient temperature measured by the external sensor (°C),aerosol sample conditioner tube jacket temperature (°C),OPC LED temperature (°C),internal box temperature (°C),relative humidity of the measurement (%),span deviation,mass concentration of particles derived from Lorenz-Mie calculation of OPC scattering (μg/m³),mass concentration of particles derived from Lorenz-Mie calculation of OPC scattering (μg/m³),mass concentration of particles derived from Lorenz-Mie calculation of OPC scattering (μg/m³)
DateTimeUTC,F1_M11,P_M11,Q1_M11,Q2_M11,T1_M11,T2_M11,T3_M11,T4_M11,T5_M11,U1_M11,ZSPAN_M11,X0_M11,X2_M11,X1_M11
2023-12-15 08:00:00,SystemResetWarning,0833.2,5.01,000.00,018.8,018.1,000.0,027.1,020.6,23.2,0000.4,0016.29,0010.70,0010.07
2023-12-15 08:01:00,SystemResetWarning,0833.3,5.01,000.00,019.0,018.8,000.0,027.1,021.0,22.9,0000.4,0016.07,0010.53,0009.93
2023-12-15 08:02:00,SystemResetWarning,0833.3,4.99,000.00,019.0,018.9,000.0,027.2,020.8,22.5,0000.2,0016.05,0010.51,0009.89
2023-12-15 08:03:00,SystemResetWarning,0833.2,5.00,000.00,019.0,018.9,000.0,027.2,020.6,22.1,0000.1,0015.86,0010.45,0009.85
2023-12-15 08:04:00,SystemResetWarning,0833.2,5.00,000.00,019.0,018.7,000.0,027.2,020.4,22.0,0000.3,0015.14,0010.14,0009.58
2023-12-15 08:05:00,SystemResetWarning,0833.2,5.00,000.00,019.0,018.6,000.0,027.2,020.3,22.0,0000.2,0014.40,0009.92,0009.40
2023-12-15 08:06:00,SystemResetWarning,0833.3,5.00,000.00,019.0,018.4,000.0,027.2,020.2,22.0,0000.0,0013.82,0009.53,0009.06
2023-12-15 08:07:00,SystemResetWarning,0833.3,4.99,000.00,018.9,018.3,000.0,027.2,020.2,22.1,0000.3,0013.05,0008.97,0008.55
2023-12-15 08:08:00,SystemResetWarning,0833.3,5.00,000.00,018.9,018.2,000.0,027.2,020.1,21.7,0000.2,0012.35,0008.45,0008.05
2023-12-15 08:09:00,SystemResetWarning,0833.3,5.00,000.00,018.9,018.1,000.0,027.2,020.0,21.3,0000.5,0011.66,0007.91,0007.54
2023-12-15 08:10:00,SystemResetWarning,0833.3,5.00,000.00,018.8,018.0,000.0,027.2,020.0,21.3,0000.7,0011.21,0007.57,0007.22
2023-12-15 08:11:00,SystemResetWarning,0833.3,5.00,000.00,018.8,017.9,000.0,027.2,020.0,21.5,0000.6,0010.79,0007.28,0006.94
2023-12-15 08:12:00,SystemResetWarning,0833.4,5.00,000.00,018.8,017.9,000.0,027.2,020.0,21.3,0000.4,0010.34,0006.88,0006.52
2023-12-15 08:13:00,SystemResetWarning,0833.4,5.00,000.00,018.8,017.8,000.0,027.2,020.0,21.1,0000.7,0009.58,0006.28,0005.97
2023-12-15 08:14:00,SystemResetWarning,0833.4,5.00,000.00,018.7,017.8,000.0,027.2,020.0,21.0,0000.9,0008.60,0005.53,0005.27
2023-12-15 08:15:00,SystemResetWarning,0833.4,5.00,000.00,018.7,017.8,000.0,027.2,020.0,20.9,0000.8,0008.05,0005.06,0004.81
2023-12-15 08:16:00,SystemResetWarning,0833.5,5.00,000.00,018.7,017.8,000.0,027.2,020.0,20.7,0001.0,0007.65,0004.75,0004.50
2023-12-15 08:17:00,SystemResetWarning,0833.4,5.00,000.00,018.8,017.8,000.0,027.2,020.0,20.6,0001.0,0007.45,0004.59,0004.34
2023-12-15 08:18:00,SystemResetWarning,0833.4,5.00,000.00,018.8,017.8,000.0,027.2,020.0,20.5,0000.8,0007.17,0004.45,0004.21
2023-12-15 08:19:00,SystemResetWarning,0833.4,5.00,000.00,018.7,017.8,000.0,027.2,020.0,20.4,0001.3,0006.87,0004.31,0004.06
2023-12-15 08:20:00,SystemResetWarning,0833.5,5.00,000.00,018.7,017.8,000.0,027.2,020.0,20.3,0001.1,0006.61,0004.21,0003.98
2023-12-15 08:21:00,SystemResetWarning,0833.4,5.00,000.00,018.7,017.8,000.0,027.2,020.0,20.3,0001.0,0006.35,0004.08,0003.86
2023-12-15 08:22:00,SystemResetWarning,0833.4,5.00,000.00,018.7,017.7,000.0,027.2,020.0,20.4,0001.2,0006.55,0004.09,0003.85
2023-12-15 08:23:00,SystemResetWarning,0833.6,5.00,000.00,018.7,017.7,000.0,027.2,020.0,20.3,0001.2,0006.61,0004.09,0003.85
2023-12-15 08:24:00,SystemResetWarning,0833.4,5.00,000.00,018.7,017.7,000.0,027.2,020.0,20.6,0000.8,0006.55,0004.06,0003.82
2023-12-15 08:25:00,SystemResetWarning,0833.4,5.00,000.00,018.7,017.7,000.0,027.2,020.0,20.7,0000.6,0006.75,0004.12,0003.86
2023-12-15 08:26:00,SystemResetWarning,0833.4,5.00,000.00,018.7,017.6,000.0,027.2,020.0,20.9,0000.6,0006.86,0004.18,0003.91
2023-12-15 08:27:00,SystemResetWarning,0833.4,5.00,000.00,018.7,017.6,000.0,027.2,020.0,21.0,0000.5,0007.14,0004.30,0004.02
2023-12-15 08:28:00,SystemResetWarning,0833.5,4.99,000.00,018.7,017.6,000.0,027.2,020.0,21.0,0000.4,0007.35,0004.42,0004.15
2023-12-15 08:29:00,SystemResetWarning,0833.5,5.01,000.00,018.7,017.6,000.0,027.2,020.0,21.3,0000.6,0007.52,0004.57,0004.29
2023-12-15 08:30:00,SystemResetWarning,0833.4,5.00,000.00,018.7,017.6,000.0,027.2,020.0,21.6,0000.5,0007.60,0004.63,0004.35
2023-12-15 08:31:00,SystemResetWarning,0833.4,5.00,000.00,018.7,017.6,000.0,027.2,020.0,21.6,0000.1,0007.63,0004.61,0004.34
2023-12-15 08:32:00,SystemResetWarning,0833.4,5.00,000.00,018.7,017.6,000.0,027.2,020.0,21.1,0000.3,0007.76,0004.74,0004.45
2023-12-15 08:33:00,SystemResetWarning,0833.4,5.00,000.00,018.7,017.5,000.0,027.2,020.0,20.7,0000.1,0008.00,0004.99,0004.70
2023-12-15 08:34:00,SystemResetWarning,0833.4,5.00,000.00,018.7,017.7,000.0,027.2,020.3,20.5,-000.0,0008.21,0005.22,0004.94
2023-12-15 08:35:00,SystemResetWarning,0833.4,5.01,000.00,018.8,018.3,000.0,027.2,020.7,20.2,-000.0,0008.32,0005.31,0005.03
2023-12-15 08:36:00,SystemResetWarning,0833.4,4.99,000.00,019.0,018.9,000.0,027.2,020.9,20.1,-000.1,0008.28,0005.30,0005.04
2023-12-15 08:37:00,SystemResetWarning,0833.4,4.98,000.00,019.0,018.8,000.0,027.2,020.6,19.9,-000.3,0008.24,0005.27,0005.01
2023-12-15 08:38:00,SystemResetWarning,0833.4,5.00,000.00,019.0,018.7,000.0,027.2,020.4,20.0,-000.3,0008.08,0005.15,0004.91
2023-12-15 08:39:00,SystemResetWarning,0833.4,5.01,000.00,018.9,018.6,000.0,027.2,020.3,20.2,-000.3,0007.91,0005.02,0004.79
2023-12-15 08:40:00,SystemResetWarning,0833.4,5.01,000.00,018.9,018.4,000.0,027.2,020.1,20.8,-000.5,0008.02,0004.85,0004.63
2023-12-15 08:41:00,SystemResetWarning,0833.4,4.98,000.00,018.9,018.3,000.0,027.2,020.1,20.8,-000.8,0008.07,0004.68,0004.47
2023-12-15 08:42:00,SystemResetWarning,0833.4,4.99,000.00,018.8,018.2,000.0,027.2,020.0,20.9,-000.8,0007.86,0004.55,0004.37
2023-12-15 08:43:00,SystemResetWarning,0833.4,5.00,000.00,018.8,018.1,000.0,027.2,020.0,21.1,-000.8,0007.73,0004.43,0004.26
2023-12-15 08:44:00,SystemResetWarning,0833.4,5.01,000.00,018.8,018.0,000.0,027.2,020.0,21.3,-000.4,0007.43,0004.19,0004.03
2023-12-15 08:45:00,SystemResetWarning,0833.4,5.00,000.00,018.8,017.9,000.0,027.2,020.0,21.4,0000.1,0007.26,0004.04,0003.87
2023-12-15 08:46:00,SystemResetWarning,0833.4,4.99,000.00,018.8,017.8,000.0,027.2,020.0,21.5,0000.0,0007.25,0004.06,0003.88
2023-12-15 08:47:00,SystemResetWarning,0833.4,5.00,000.00,018.8,017.8,000.0,027.2,020.0,21.6,0000.6,0007.36,0004.14,0003.96
2023-12-15 08:48:00,SystemResetWarning,0833.4,4.99,000.00,018.7,017.8,000.0,027.2,020.0,21.7,0000.6,0007.57,0004.32,0004.13
2023-12-15 08:49:00,SystemResetWarning,0833.4,5.00,000.00,018.7,017.7,000.0,027.2,020.0,21.7,0000.6,0008.13,0004.62,0004.42
2023-12-15 08:50:00,SystemResetWarning,0833.3,5.00,000.00,018.7,017.7,000.0,027.3,020.0,21.5,0000.7,0008.48,0004.91,0004.69
2023-12-15 08:51:00,SystemResetWarning,0833.3,5.00,000.00,018.7,017.6,000.0,027.2,020.0,21.2,0000.9,0009.21,0005.32,0005.07
2023-12-15 08:52:00,SystemResetWarning,0833.3,5.01,000.00,018.7,017.6,000.0,027.3,020.0,21.2,0001.1,0009.22,0005.68,0005.42
2023-12-15 08:53:00,SystemResetWarning,0833.3,5.00,000.00,018.7,017.5,000.0,027.3,020.0,21.3,0001.0,0010.03,0005.99,0005.74
2023-12-15 08:54:00,SystemResetWarning,0833.3,5.00,000.00,018.7,017.5,000.0,027.3,020.0,21.5,0001.3,0010.22,0006.17,0005.91
2023-12-15 08:55:00,SystemResetWarning,0833.3,5.00,000.00,018.7,017.5,000.0,027.3,020.0,21.8,0001.3,0010.44,0006.37,0006.10
2023-12-15 08:56:00,SystemResetWarning,0833.3,4.99,000.00,018.7,017.5,000.0,027.3,020.0,22.0,0001.4,0010.72,0006.59,0006.33
2023-12-15 08:57:00,SystemResetWarning,0833.3,4.99,000.00,018.7,017.4,000.0,027.3,020.0,22.1,0001.5,0011.01,0006.79,0006.53
2023-12-15 08:58:00,SystemResetWarning,0833.2,4.99,000.00,018.7,017.4,000.0,027.3,020.0,22.2,0001.3,0011.66,0007.07,0006.82
2023-12-15 08:59:00,SystemResetWarning,0833.2,5.00,000.00,018.7,017.6,000.0,027.2,020.2,22.3,0001.3,0012.11,0007.39,0007.10
